Year,Month,Day,Hour,Minute,Value (Times are PST for temperature in C)
2012,10,09,00,00,7.60
2012,10,09,00,01,7.60
2012,10,09,00,02,7.60
2012,10,09,00,03,7.60
2012,10,09,00,04,7.60
2012,10,09,00,05,7.60
2012,10,09,00,06,7.60
2012,10,09,00,07,7.60
2012,10,09,00,08,7.60
2012,10,09,00,09,7.50
2012,10,09,00,10,7.50
2012,10,09,00,11,7.50
2012,10,09,00,12,7.40
2012,10,09,00,13,7.40
2012,10,09,00,14,7.40
2012,10,09,00,15,7.40
2012,10,09,00,16,7.40
2012,10,09,00,17,7.40
2012,10,09,00,18,7.30
2012,10,09,00,19,7.30
2012,10,09,00,20,7.30
2012,10,09,00,21,7.30
2012,10,09,00,22,7.30
2012,10,09,00,23,7.30
2012,10,09,00,24,7.20
2012,10,09,00,25,7.20
2012,10,09,00,26,7.20
2012,10,09,00,27,7.20
2012,10,09,00,28,7.20
2012,10,09,00,29,7.20
2012,10,09,00,30,7.20
2012,10,09,00,31,7.20
2012,10,09,00,32,7.20
2012,10,09,00,33,7.20
2012,10,09,00,34,7.10
2012,10,09,00,35,7.10
2012,10,09,00,36,7.10
2012,10,09,00,37,7.10
2012,10,09,00,38,7.00
2012,10,09,00,39,7.00
2012,10,09,00,40,7.00
2012,10,09,00,41,7.00
2012,10,09,00,42,7.00
2012,10,09,00,43,7.10
2012,10,09,00,44,7.10
2012,10,09,00,45,7.10
2012,10,09,00,46,7.10
2012,10,09,00,47,7.20
2012,10,09,00,48,7.20
2012,10,09,00,49,7.20
2012,10,09,00,50,7.20
2012,10,09,00,51,7.20
2012,10,09,00,52,7.20
2012,10,09,00,53,7.20
2012,10,09,00,54,7.10
2012,10,09,00,55,7.10
2012,10,09,00,56,7.10
2012,10,09,00,57,7.10
2012,10,09,00,58,7.10
2012,10,09,00,59,7.10
2012,10,09,01,00,7.00
2012,10,09,01,01,7.00
2012,10,09,01,02,7.00
2012,10,09,01,03,7.00
2012,10,09,01,04,7.00
2012,10,09,01,05,6.90
2012,10,09,01,06,6.90
2012,10,09,01,07,6.90
2012,10,09,01,08,6.90
2012,10,09,01,09,6.90
2012,10,09,01,10,6.90
2012,10,09,01,11,6.90
2012,10,09,01,12,6.90
2012,10,09,01,13,6.90
2012,10,09,01,14,6.90
2012,10,09,01,15,6.90
2012,10,09,01,16,6.90
2012,10,09,01,17,6.80
2012,10,09,01,18,6.80
2012,10,09,01,19,6.80
2012,10,09,01,20,6.80
2012,10,09,01,21,6.80
2012,10,09,01,22,6.80
2012,10,09,01,23,6.80
2012,10,09,01,24,6.80
2012,10,09,01,25,6.80
2012,10,09,01,26,6.80
2012,10,09,01,27,6.80
2012,10,09,01,28,6.80
2012,10,09,01,29,6.80
2012,10,09,01,30,6.80
2012,10,09,01,31,6.80
2012,10,09,01,32,6.80
2012,10,09,01,33,6.80
2012,10,09,01,34,6.80
2012,10,09,01,35,6.80
2012,10,09,01,36,6.80
2012,10,09,01,37,6.80
2012,10,09,01,38,6.80
2012,10,09,01,39,6.80
2012,10,09,01,40,6.80
2012,10,09,01,41,6.80
2012,10,09,01,42,6.80
2012,10,09,01,43,6.80
2012,10,09,01,44,6.70
2012,10,09,01,45,6.70
2012,10,09,01,46,6.70
2012,10,09,01,47,6.70
2012,10,09,01,48,6.60
2012,10,09,01,49,6.60
2012,10,09,01,50,6.60
2012,10,09,01,51,6.50
2012,10,09,01,52,6.50
2012,10,09,01,53,6.50
2012,10,09,01,54,6.40
2012,10,09,01,55,6.40
2012,10,09,01,56,6.40
2012,10,09,01,57,6.40
2012,10,09,01,58,6.40
2012,10,09,01,59,6.40
2012,10,09,02,00,6.40
2012,10,09,02,01,6.50
2012,10,09,02,02,6.50
2012,10,09,02,03,6.50
2012,10,09,02,04,6.50
2012,10,09,02,05,6.60
2012,10,09,02,06,6.60
2012,10,09,02,07,6.60
2012,10,09,02,08,6.60
2012,10,09,02,09,6.60
2012,10,09,02,10,6.60
2012,10,09,02,11,6.60
2012,10,09,02,12,6.60
2012,10,09,02,13,6.60
2012,10,09,02,14,6.60
2012,10,09,02,15,6.50
2012,10,09,02,16,6.50
2012,10,09,02,17,6.50
2012,10,09,02,18,6.40
2012,10,09,02,19,6.40
2012,10,09,02,20,6.30
2012,10,09,02,21,6.30
2012,10,09,02,22,6.20
2012,10,09,02,23,6.20
2012,10,09,02,24,6.10
2012,10,09,02,25,6.00
2012,10,09,02,26,6.00
2012,10,09,02,27,5.90
2012,10,09,02,28,5.90
2012,10,09,02,29,5.90
2012,10,09,02,30,5.90
2012,10,09,02,31,5.80
2012,10,09,02,32,5.80
2012,10,09,02,33,5.80
2012,10,09,02,34,5.80
2012,10,09,02,35,5.80
2012,10,09,02,36,5.70
2012,10,09,02,37,5.70
2012,10,09,02,38,5.70
2012,10,09,02,39,5.70
2012,10,09,02,40,5.80
2012,10,09,02,41,5.80
2012,10,09,02,42,5.80
2012,10,09,02,43,5.80
2012,10,09,02,44,5.80
2012,10,09,02,45,5.70
2012,10,09,02,46,5.70
2012,10,09,02,47,5.70
2012,10,09,02,48,5.70
2012,10,09,02,49,5.70
2012,10,09,02,50,5.70
2012,10,09,02,51,5.70
2012,10,09,02,52,5.70
2012,10,09,02,53,5.70
2012,10,09,02,54,5.70
2012,10,09,02,55,5.60
2012,10,09,02,56,5.60
2012,10,09,02,57,5.60
2012,10,09,02,58,5.60
2012,10,09,02,59,5.60
2012,10,09,03,00,5.60
2012,10,09,03,01,5.50
2012,10,09,03,02,5.50
2012,10,09,03,03,5.50
2012,10,09,03,04,5.50
2012,10,09,03,05,5.40
2012,10,09,03,06,5.40
2012,10,09,03,07,5.40
2012,10,09,03,08,5.40
2012,10,09,03,09,5.40
2012,10,09,03,10,5.40
2012,10,09,03,11,5.40
2012,10,09,03,12,5.40
2012,10,09,03,13,5.40
2012,10,09,03,14,5.40
2012,10,09,03,15,5.40
2012,10,09,03,16,5.40
2012,10,09,03,17,5.40
2012,10,09,03,18,5.40
2012,10,09,03,19,5.40
2012,10,09,03,20,5.40
2012,10,09,03,21,5.40
2012,10,09,03,22,5.40
2012,10,09,03,23,5.40
2012,10,09,03,24,5.40
2012,10,09,03,25,5.40
2012,10,09,03,26,5.30
2012,10,09,03,27,5.30
2012,10,09,03,28,5.30
2012,10,09,03,29,5.30
2012,10,09,03,30,5.30
2012,10,09,03,31,5.30
2012,10,09,03,32,5.30
2012,10,09,03,33,5.30
2012,10,09,03,34,5.30
2012,10,09,03,35,5.30
2012,10,09,03,36,5.30
2012,10,09,03,37,5.30
2012,10,09,03,38,5.20
2012,10,09,03,39,5.20
2012,10,09,03,40,5.20
2012,10,09,03,41,5.20
2012,10,09,03,42,5.20
2012,10,09,03,43,5.20
2012,10,09,03,44,5.20
2012,10,09,03,45,5.20
2012,10,09,03,46,5.20
2012,10,09,03,47,5.20
2012,10,09,03,48,5.20
2012,10,09,03,49,5.20
2012,10,09,03,50,5.20
2012,10,09,03,51,5.20
2012,10,09,03,52,5.20
2012,10,09,03,53,5.20
2012,10,09,03,54,5.20
2012,10,09,03,55,5.20
2012,10,09,03,56,5.20
2012,10,09,03,57,5.20
2012,10,09,03,58,5.20
2012,10,09,03,59,5.10
2012,10,09,04,00,5.10
2012,10,09,04,01,5.10
2012,10,09,04,02,5.20
2012,10,09,04,03,5.20
2012,10,09,04,04,5.20
2012,10,09,04,05,5.20
2012,10,09,04,06,5.20
2012,10,09,04,07,5.20
2012,10,09,04,08,5.20
2012,10,09,04,09,5.20
2012,10,09,04,10,5.20
2012,10,09,04,11,5.20
2012,10,09,04,12,5.20
2012,10,09,04,13,5.20
2012,10,09,04,14,5.20
2012,10,09,04,15,5.20
2012,10,09,04,16,5.10
2012,10,09,04,17,5.10
2012,10,09,04,18,5.10
2012,10,09,04,19,5.10
2012,10,09,04,20,5.10
2012,10,09,04,21,5.10
2012,10,09,04,22,5.10
2012,10,09,04,23,5.10
2012,10,09,04,24,5.10
2012,10,09,04,25,5.10
2012,10,09,04,26,5.10
2012,10,09,04,27,5.00
2012,10,09,04,28,5.00
2012,10,09,04,29,5.00
2012,10,09,04,30,5.00
2012,10,09,04,31,5.10
2012,10,09,04,32,5.00
2012,10,09,04,33,5.00
2012,10,09,04,34,5.00
2012,10,09,04,35,5.00
2012,10,09,04,36,5.00
2012,10,09,04,37,5.00
2012,10,09,04,38,5.00
2012,10,09,04,39,5.00
2012,10,09,04,40,5.10
2012,10,09,04,41,5.00
2012,10,09,04,42,5.00
2012,10,09,04,43,5.00
2012,10,09,04,44,5.00
2012,10,09,04,45,5.00
2012,10,09,04,46,5.00
2012,10,09,04,47,5.00
2012,10,09,04,48,5.00
2012,10,09,04,49,5.00
2012,10,09,04,50,5.00
2012,10,09,04,51,5.00
2012,10,09,04,52,5.00
2012,10,09,04,53,5.00
2012,10,09,04,54,5.00
2012,10,09,04,55,5.00
2012,10,09,04,56,5.00
2012,10,09,04,57,5.00
2012,10,09,04,58,5.00
2012,10,09,04,59,5.00
2012,10,09,05,00,5.00
2012,10,09,05,01,5.00
2012,10,09,05,02,5.00
2012,10,09,05,03,5.00
2012,10,09,05,04,5.00
2012,10,09,05,05,5.00
2012,10,09,05,06,5.00
2012,10,09,05,07,5.00
2012,10,09,05,08,5.00
2012,10,09,05,09,5.00
2012,10,09,05,10,5.00
2012,10,09,05,11,5.00
2012,10,09,05,12,4.90
2012,10,09,05,13,4.90
2012,10,09,05,14,4.90
2012,10,09,05,15,4.90
2012,10,09,05,16,4.90
2012,10,09,05,17,4.90
2012,10,09,05,18,4.90
2012,10,09,05,19,4.80
2012,10,09,05,20,4.80
2012,10,09,05,21,4.80
2012,10,09,05,22,4.80
2012,10,09,05,23,4.80
2012,10,09,05,24,4.80
2012,10,09,05,25,4.80
2012,10,09,05,26,4.80
2012,10,09,05,27,4.80
2012,10,09,05,28,4.80
2012,10,09,05,29,4.80
2012,10,09,05,30,4.80
2012,10,09,05,31,4.80
2012,10,09,05,32,4.80
2012,10,09,05,33,4.80
2012,10,09,05,34,4.80
2012,10,09,05,35,4.80
2012,10,09,05,36,4.80
2012,10,09,05,37,4.80
2012,10,09,05,38,4.80
2012,10,09,05,39,4.80
2012,10,09,05,40,4.80
2012,10,09,05,41,4.70
2012,10,09,05,42,4.70
2012,10,09,05,43,4.70
2012,10,09,05,44,4.70
2012,10,09,05,45,4.70
2012,10,09,05,46,4.70
2012,10,09,05,47,4.70
2012,10,09,05,48,4.70
2012,10,09,05,49,4.70
2012,10,09,05,50,4.70
2012,10,09,05,51,4.70
2012,10,09,05,52,4.70
2012,10,09,05,53,4.60
2012,10,09,05,54,4.60
2012,10,09,05,55,4.60
2012,10,09,05,56,4.60
2012,10,09,05,57,4.60
2012,10,09,05,58,4.70
2012,10,09,05,59,4.70
2012,10,09,06,00,4.70
2012,10,09,06,01,4.60
2012,10,09,06,02,4.60
2012,10,09,06,03,4.60
2012,10,09,06,04,4.60
2012,10,09,06,05,4.60
2012,10,09,06,06,4.60
2012,10,09,06,07,4.60
2012,10,09,06,08,4.50
2012,10,09,06,09,4.60
2012,10,09,06,10,4.50
2012,10,09,06,11,4.50
2012,10,09,06,12,4.50
2012,10,09,06,13,4.50
2012,10,09,06,14,4.50
2012,10,09,06,15,4.50
2012,10,09,06,16,4.50
2012,10,09,06,17,4.50
2012,10,09,06,18,4.50
2012,10,09,06,19,4.50
2012,10,09,06,20,4.50
2012,10,09,06,21,4.50
2012,10,09,06,22,4.50
2012,10,09,06,23,4.50
2012,10,09,06,24,4.50
2012,10,09,06,25,4.50
2012,10,09,06,26,4.50
2012,10,09,06,27,4.50
2012,10,09,06,28,4.50
2012,10,09,06,29,4.50
2012,10,09,06,30,4.50
2012,10,09,06,31,4.50
2012,10,09,06,32,4.50
2012,10,09,06,33,4.50
2012,10,09,06,34,4.50
2012,10,09,06,35,4.50
2012,10,09,06,36,4.50
2012,10,09,06,37,4.50
2012,10,09,06,38,4.50
2012,10,09,06,39,4.50
2012,10,09,06,40,4.50
2012,10,09,06,41,4.50
2012,10,09,06,42,4.50
2012,10,09,06,43,4.50
2012,10,09,06,44,4.50
2012,10,09,06,45,4.40
2012,10,09,06,46,4.50
2012,10,09,06,47,4.40
2012,10,09,06,48,4.40
2012,10,09,06,49,4.40
2012,10,09,06,50,4.40
2012,10,09,06,51,4.40
2012,10,09,06,52,4.40
2012,10,09,06,53,4.40
2012,10,09,06,54,4.40
2012,10,09,06,55,4.40
2012,10,09,06,56,4.40
2012,10,09,06,57,4.40
2012,10,09,06,58,4.40
2012,10,09,06,59,4.30
2012,10,09,07,00,4.30
2012,10,09,07,01,4.30
2012,10,09,07,02,4.30
2012,10,09,07,03,4.30
2012,10,09,07,04,4.30
2012,10,09,07,05,4.30
2012,10,09,07,06,4.30
2012,10,09,07,07,4.30
2012,10,09,07,08,4.30
2012,10,09,07,09,4.30
2012,10,09,07,10,4.30
2012,10,09,07,11,4.30
2012,10,09,07,12,4.30
2012,10,09,07,13,4.30
2012,10,09,07,14,4.30
2012,10,09,07,15,4.30
2012,10,09,07,16,4.30
2012,10,09,07,17,4.30
2012,10,09,07,18,4.30
2012,10,09,07,19,4.30
2012,10,09,07,20,4.30
2012,10,09,07,21,4.30
2012,10,09,07,22,4.30
2012,10,09,07,23,4.30
2012,10,09,07,24,4.30
2012,10,09,07,25,4.30
2012,10,09,07,26,4.30
2012,10,09,07,27,4.30
2012,10,09,07,28,4.30
2012,10,09,07,29,4.30
2012,10,09,07,30,4.30
2012,10,09,07,31,4.30
2012,10,09,07,32,4.30
2012,10,09,07,33,4.20
2012,10,09,07,34,4.20
2012,10,09,07,35,4.20
2012,10,09,07,36,4.20
2012,10,09,07,37,4.20
2012,10,09,07,38,4.20
2012,10,09,07,39,4.20
2012,10,09,07,40,4.20
2012,10,09,07,41,4.20
2012,10,09,07,42,4.20
2012,10,09,07,43,4.20
2012,10,09,07,44,4.20
2012,10,09,07,45,4.20
2012,10,09,07,46,4.20
2012,10,09,07,47,4.20
2012,10,09,07,48,4.20
2012,10,09,07,49,4.20
2012,10,09,07,50,4.20
2012,10,09,07,51,4.20
2012,10,09,07,52,4.20
2012,10,09,07,53,4.30
2012,10,09,07,54,4.30
2012,10,09,07,55,4.30
2012,10,09,07,56,4.30
2012,10,09,07,57,4.30
2012,10,09,07,58,4.40
2012,10,09,07,59,4.40
2012,10,09,08,00,4.40
2012,10,09,08,01,4.40
2012,10,09,08,02,4.50
2012,10,09,08,03,4.50
2012,10,09,08,04,4.60
2012,10,09,08,05,4.60
2012,10,09,08,06,4.60
2012,10,09,08,07,4.70
2012,10,09,08,08,4.70
2012,10,09,08,09,4.70
2012,10,09,08,10,4.80
2012,10,09,08,11,4.80
2012,10,09,08,12,4.80
2012,10,09,08,13,4.90
2012,10,09,08,14,4.90
2012,10,09,08,15,4.90
2012,10,09,08,16,4.90
2012,10,09,08,17,4.90
2012,10,09,08,18,5.00
2012,10,09,08,19,5.00
2012,10,09,08,20,5.10
2012,10,09,08,21,5.10
2012,10,09,08,22,5.20
2012,10,09,08,23,5.20
2012,10,09,08,24,5.20
2012,10,09,08,25,5.20
2012,10,09,08,26,5.30
2012,10,09,08,27,5.30
2012,10,09,08,28,5.30
2012,10,09,08,29,5.30
2012,10,09,08,30,5.40
2012,10,09,08,31,5.40
2012,10,09,08,32,5.40
2012,10,09,08,33,5.50
2012,10,09,08,34,5.50
2012,10,09,08,35,5.50
2012,10,09,08,36,5.60
2012,10,09,08,37,5.60
2012,10,09,08,38,5.60
2012,10,09,08,39,5.70
2012,10,09,08,40,5.70
2012,10,09,08,41,5.70
2012,10,09,08,42,5.80
2012,10,09,08,43,5.80
2012,10,09,08,44,5.90
2012,10,09,08,45,5.90
2012,10,09,08,46,6.00
2012,10,09,08,47,6.10
2012,10,09,08,48,6.10
2012,10,09,08,49,6.20
2012,10,09,08,50,6.30
2012,10,09,08,51,6.30
2012,10,09,08,52,6.40
2012,10,09,08,53,6.40
2012,10,09,08,54,6.50
2012,10,09,08,55,6.50
2012,10,09,08,56,6.60
2012,10,09,08,57,6.70
2012,10,09,08,58,6.70
2012,10,09,08,59,6.80
2012,10,09,09,00,6.80
2012,10,09,09,01,6.90
2012,10,09,09,02,7.00
2012,10,09,09,03,7.00
2012,10,09,09,04,7.10
2012,10,09,09,05,7.20
2012,10,09,09,06,7.30
2012,10,09,09,07,7.30
2012,10,09,09,08,7.40
2012,10,09,09,09,7.50
2012,10,09,09,10,7.50
2012,10,09,09,11,7.60
2012,10,09,09,12,7.70
2012,10,09,09,13,7.80
2012,10,09,09,14,7.90
2012,10,09,09,15,8.00
2012,10,09,09,16,8.00
2012,10,09,09,17,8.10
2012,10,09,09,18,8.20
2012,10,09,09,19,8.30
2012,10,09,09,20,8.40
2012,10,09,09,21,8.50
2012,10,09,09,22,8.50
2012,10,09,09,23,8.60
2012,10,09,09,24,8.70
2012,10,09,09,25,8.80
2012,10,09,09,26,8.90
2012,10,09,09,27,9.00
2012,10,09,09,28,9.10
2012,10,09,09,29,9.20
2012,10,09,09,30,9.30
2012,10,09,09,31,9.40
2012,10,09,09,32,9.60
2012,10,09,09,33,9.70
2012,10,09,09,34,9.80
2012,10,09,09,35,9.90
2012,10,09,09,36,10.00
2012,10,09,09,37,10.10
2012,10,09,09,38,10.20
2012,10,09,09,39,10.30
2012,10,09,09,40,10.30
2012,10,09,09,41,10.30
2012,10,09,09,42,10.40
2012,10,09,09,43,10.40
2012,10,09,09,44,10.50
2012,10,09,09,45,10.60
2012,10,09,09,46,10.60
2012,10,09,09,47,10.70
2012,10,09,09,48,10.80
2012,10,09,09,49,10.90
2012,10,09,09,50,11.00
2012,10,09,09,51,11.00
2012,10,09,09,52,11.10
2012,10,09,09,53,11.10
2012,10,09,09,54,11.20
2012,10,09,09,55,11.20
2012,10,09,09,56,11.20
2012,10,09,09,57,11.30
2012,10,09,09,58,11.30
2012,10,09,09,59,11.40
2012,10,09,10,00,11.50
2012,10,09,10,01,11.60
2012,10,09,10,02,11.70
2012,10,09,10,03,11.80
2012,10,09,10,04,11.90
2012,10,09,10,05,11.90
2012,10,09,10,06,11.90
2012,10,09,10,07,11.90
2012,10,09,10,08,11.90
2012,10,09,10,09,11.90
2012,10,09,10,10,12.00
2012,10,09,10,11,12.00
2012,10,09,10,12,12.00
2012,10,09,10,13,12.10
2012,10,09,10,14,12.20
2012,10,09,10,15,12.30
2012,10,09,10,16,12.40
2012,10,09,10,17,12.40
2012,10,09,10,18,12.50
2012,10,09,10,19,12.50
2012,10,09,10,20,12.50
2012,10,09,10,21,12.50
2012,10,09,10,22,12.50
2012,10,09,10,23,12.60
2012,10,09,10,24,12.60
2012,10,09,10,25,12.60
2012,10,09,10,26,12.70
2012,10,09,10,27,12.70
2012,10,09,10,28,12.70
2012,10,09,10,29,12.70
2012,10,09,10,30,12.70
2012,10,09,10,31,12.70
2012,10,09,10,32,12.70
2012,10,09,10,33,12.70
2012,10,09,10,34,12.70
2012,10,09,10,35,12.70
2012,10,09,10,36,12.70
2012,10,09,10,37,12.70
2012,10,09,10,38,12.70
2012,10,09,10,39,12.80
2012,10,09,10,40,12.80
2012,10,09,10,41,12.80
2012,10,09,10,42,12.80
2012,10,09,10,43,12.70
2012,10,09,10,44,12.70
2012,10,09,10,45,12.70
2012,10,09,10,46,12.80
2012,10,09,10,47,12.80
2012,10,09,10,48,12.80
2012,10,09,10,49,12.80
2012,10,09,10,50,12.80
2012,10,09,10,51,12.80
2012,10,09,10,52,12.80
2012,10,09,10,53,12.80
2012,10,09,10,54,12.80
2012,10,09,10,55,12.80
2012,10,09,10,56,12.80
2012,10,09,10,57,12.70
2012,10,09,10,58,12.70
2012,10,09,10,59,12.70
2012,10,09,11,00,12.70
2012,10,09,11,01,12.70
2012,10,09,11,02,12.70
2012,10,09,11,03,12.70
2012,10,09,11,04,12.70
2012,10,09,11,05,12.70
2012,10,09,11,06,12.70
2012,10,09,11,07,12.70
2012,10,09,11,08,12.70
2012,10,09,11,09,12.70
2012,10,09,11,10,12.70
2012,10,09,11,11,12.70
2012,10,09,11,12,12.70
2012,10,09,11,13,12.80
2012,10,09,11,14,12.80
2012,10,09,11,15,12.80
2012,10,09,11,16,12.80
2012,10,09,11,17,12.80
2012,10,09,11,18,12.80
2012,10,09,11,19,12.80
2012,10,09,11,20,12.90
2012,10,09,11,21,12.90
2012,10,09,11,22,12.90
2012,10,09,11,23,12.90
2012,10,09,11,24,12.90
2012,10,09,11,25,12.80
2012,10,09,11,26,12.80
2012,10,09,11,27,12.80
2012,10,09,11,28,12.80
2012,10,09,11,29,12.80
2012,10,09,11,30,12.80
2012,10,09,11,31,12.80
2012,10,09,11,32,12.80
2012,10,09,11,33,12.80
2012,10,09,11,34,12.80
2012,10,09,11,35,12.90
2012,10,09,11,36,12.90
2012,10,09,11,37,12.80
2012,10,09,11,38,12.80
2012,10,09,11,39,12.80
2012,10,09,11,40,12.80
2012,10,09,11,41,12.80
2012,10,09,11,42,12.90
2012,10,09,11,43,12.90
2012,10,09,11,44,12.90
2012,10,09,11,45,12.90
2012,10,09,11,46,12.90
2012,10,09,11,47,12.90
2012,10,09,11,48,12.90
2012,10,09,11,49,12.90
2012,10,09,11,50,13.00
2012,10,09,11,51,13.00
2012,10,09,11,52,13.00
2012,10,09,11,53,13.10
2012,10,09,11,54,13.10
2012,10,09,11,55,13.10
2012,10,09,11,56,13.10
2012,10,09,11,57,13.10
2012,10,09,11,58,13.10
2012,10,09,11,59,13.10
2012,10,09,12,00,13.10
2012,10,09,12,01,13.10
2012,10,09,12,02,13.10
2012,10,09,12,03,13.10
2012,10,09,12,04,13.20
2012,10,09,12,05,13.20
2012,10,09,12,06,13.20
2012,10,09,12,07,13.20
2012,10,09,12,08,13.20
2012,10,09,12,09,13.30
2012,10,09,12,10,13.30
2012,10,09,12,11,13.30
2012,10,09,12,12,13.40
2012,10,09,12,13,13.40
2012,10,09,12,14,13.50
2012,10,09,12,15,13.50
2012,10,09,12,16,13.60
2012,10,09,12,17,13.60
2012,10,09,12,18,13.60
2012,10,09,12,19,13.60
2012,10,09,12,20,13.60
2012,10,09,12,21,13.60
2012,10,09,12,22,13.60
2012,10,09,12,23,13.60
2012,10,09,12,24,13.90
2012,10,09,12,25,14.00
2012,10,09,12,26,14.10
2012,10,09,12,27,14.10
2012,10,09,12,28,14.20
2012,10,09,12,29,14.20
2012,10,09,12,30,14.20
2012,10,09,12,31,14.30
2012,10,09,12,32,14.30
2012,10,09,12,33,14.30
2012,10,09,12,34,14.40
2012,10,09,12,35,14.40
2012,10,09,12,36,14.40
2012,10,09,12,37,14.50
2012,10,09,12,38,14.50
2012,10,09,12,39,14.40
2012,10,09,12,40,14.40
2012,10,09,12,41,14.30
2012,10,09,12,42,14.20
2012,10,09,12,43,14.10
2012,10,09,12,44,14.10
2012,10,09,12,45,14.00
2012,10,09,12,46,14.00
2012,10,09,12,47,13.90
2012,10,09,12,48,13.80
2012,10,09,12,49,13.80
2012,10,09,12,50,13.80
2012,10,09,12,51,13.70
2012,10,09,12,52,13.70
2012,10,09,12,53,13.70
2012,10,09,12,54,13.70
2012,10,09,12,55,13.60
2012,10,09,12,56,13.60
2012,10,09,12,57,13.60
2012,10,09,12,58,13.60
2012,10,09,12,59,13.60
2012,10,09,13,00,13.60
2012,10,09,13,01,13.50
2012,10,09,13,02,13.50
2012,10,09,13,03,13.50
2012,10,09,13,04,13.50
2012,10,09,13,05,13.50
2012,10,09,13,06,13.50
2012,10,09,13,07,13.50
2012,10,09,13,08,13.50
2012,10,09,13,09,13.50
2012,10,09,13,10,13.50
2012,10,09,13,11,13.50
2012,10,09,13,12,13.50
2012,10,09,13,13,13.50
2012,10,09,13,14,13.50
2012,10,09,13,15,13.50
2012,10,09,13,16,13.50
2012,10,09,13,17,13.40
2012,10,09,13,18,13.40
2012,10,09,13,19,13.40
2012,10,09,13,20,13.40
2012,10,09,13,21,13.40
2012,10,09,13,22,13.40
2012,10,09,13,23,13.40
2012,10,09,13,24,13.40
2012,10,09,13,25,13.40
2012,10,09,13,26,13.40
2012,10,09,13,27,13.40
2012,10,09,13,28,13.40
2012,10,09,13,29,13.30
2012,10,09,13,30,13.30
2012,10,09,13,31,13.30
2012,10,09,13,32,13.30
2012,10,09,13,33,13.30
2012,10,09,13,34,13.30
2012,10,09,13,35,13.30
2012,10,09,13,36,13.30
2012,10,09,13,37,13.30
2012,10,09,13,38,13.40
2012,10,09,13,39,13.40
2012,10,09,13,40,13.40
2012,10,09,13,41,13.50
2012,10,09,13,42,13.50
2012,10,09,13,43,13.50
2012,10,09,13,44,13.50
2012,10,09,13,45,13.50
2012,10,09,13,46,13.60
2012,10,09,13,47,13.60
2012,10,09,13,48,13.60
2012,10,09,13,49,13.70
2012,10,09,13,50,13.70
2012,10,09,13,51,13.80
2012,10,09,13,52,13.80
2012,10,09,13,53,13.90
2012,10,09,13,54,13.90
2012,10,09,13,55,13.90
2012,10,09,13,56,13.90
2012,10,09,13,57,13.90
2012,10,09,13,58,14.00
2012,10,09,13,59,14.00
2012,10,09,14,00,14.10
2012,10,09,14,01,14.10
2012,10,09,14,02,14.20
2012,10,09,14,03,14.30
2012,10,09,14,04,14.30
2012,10,09,14,05,14.30
2012,10,09,14,06,14.40
2012,10,09,14,07,14.40
2012,10,09,14,08,14.40
2012,10,09,14,09,14.40
2012,10,09,14,10,14.40
2012,10,09,14,11,14.50
2012,10,09,14,12,14.50
2012,10,09,14,13,14.60
2012,10,09,14,14,14.60
2012,10,09,14,15,14.60
2012,10,09,14,16,14.60
2012,10,09,14,17,14.70
2012,10,09,14,18,14.70
2012,10,09,14,19,14.70
2012,10,09,14,20,14.70
2012,10,09,14,21,14.70
2012,10,09,14,22,14.70
2012,10,09,14,23,14.70
2012,10,09,14,24,14.70
2012,10,09,14,25,14.70
2012,10,09,14,26,14.60
2012,10,09,14,27,14.60
2012,10,09,14,28,14.60
2012,10,09,14,29,14.60
2012,10,09,14,30,14.60
2012,10,09,14,31,14.70
2012,10,09,14,32,14.70
2012,10,09,14,33,14.70
2012,10,09,14,34,14.80
2012,10,09,14,35,14.80
2012,10,09,14,36,14.80
2012,10,09,14,37,14.80
2012,10,09,14,38,14.80
2012,10,09,14,39,14.90
2012,10,09,14,40,14.90
2012,10,09,14,41,15.00
2012,10,09,14,42,15.00
2012,10,09,14,43,15.00
2012,10,09,14,44,15.00
2012,10,09,14,45,15.00
2012,10,09,14,46,15.00
2012,10,09,14,47,15.00
2012,10,09,14,48,15.00
2012,10,09,14,49,15.10
2012,10,09,14,50,15.10
2012,10,09,14,51,15.20
2012,10,09,14,52,15.20
2012,10,09,14,53,15.20
2012,10,09,14,54,15.20
2012,10,09,14,55,15.30
2012,10,09,14,56,15.30
2012,10,09,14,57,15.30
2012,10,09,14,58,15.40
2012,10,09,14,59,15.40
2012,10,09,15,00,15.40
2012,10,09,15,01,15.40
2012,10,09,15,02,15.40
2012,10,09,15,03,15.40
2012,10,09,15,04,15.40
2012,10,09,15,05,15.50
2012,10,09,15,06,15.50
2012,10,09,15,07,15.50
2012,10,09,15,08,15.50
2012,10,09,15,09,15.50
2012,10,09,15,10,15.50
2012,10,09,15,11,15.50
2012,10,09,15,12,15.40
2012,10,09,15,13,15.40
2012,10,09,15,14,15.40
2012,10,09,15,15,15.40
2012,10,09,15,16,15.40
2012,10,09,15,17,15.40
2012,10,09,15,18,15.30
2012,10,09,15,19,15.30
2012,10,09,15,20,15.20
2012,10,09,15,21,15.20
2012,10,09,15,22,15.10
2012,10,09,15,23,15.10
2012,10,09,15,24,15.10
2012,10,09,15,25,15.10
2012,10,09,15,26,15.00
2012,10,09,15,27,15.00
2012,10,09,15,28,15.00
2012,10,09,15,29,14.90
2012,10,09,15,30,14.90
2012,10,09,15,31,14.90
2012,10,09,15,32,14.90
2012,10,09,15,33,14.90
2012,10,09,15,34,14.90
2012,10,09,15,35,14.90
2012,10,09,15,36,14.90
2012,10,09,15,37,14.90
2012,10,09,15,38,15.00
2012,10,09,15,39,15.00
2012,10,09,15,40,15.10
2012,10,09,15,41,15.10
2012,10,09,15,42,15.20
2012,10,09,15,43,15.20
2012,10,09,15,44,15.20
2012,10,09,15,45,15.20
2012,10,09,15,46,15.20
2012,10,09,15,47,15.20
2012,10,09,15,48,15.20
2012,10,09,15,49,15.20
2012,10,09,15,50,15.30
2012,10,09,15,51,15.20
2012,10,09,15,52,15.20
2012,10,09,15,53,15.20
2012,10,09,15,54,15.20
2012,10,09,15,55,15.20
2012,10,09,15,56,15.20
2012,10,09,15,57,15.20
2012,10,09,15,58,15.20
2012,10,09,15,59,15.20
2012,10,09,16,00,15.20
2012,10,09,16,01,15.20
2012,10,09,16,02,15.20
2012,10,09,16,03,15.20
2012,10,09,16,04,15.20
2012,10,09,16,05,15.10
2012,10,09,16,06,15.10
2012,10,09,16,07,15.10
2012,10,09,16,08,15.00
2012,10,09,16,09,15.00
2012,10,09,16,10,15.00
2012,10,09,16,11,14.90
2012,10,09,16,12,14.90
2012,10,09,16,13,14.90
2012,10,09,16,14,14.90
2012,10,09,16,15,14.90
2012,10,09,16,16,14.80
2012,10,09,16,17,14.80
2012,10,09,16,18,14.80
2012,10,09,16,19,14.80
2012,10,09,16,20,14.80
2012,10,09,16,21,14.80
2012,10,09,16,22,14.80
2012,10,09,16,23,14.80
2012,10,09,16,24,14.80
2012,10,09,16,25,14.80
2012,10,09,16,26,14.80
2012,10,09,16,27,14.80
2012,10,09,16,28,14.90
2012,10,09,16,29,14.90
2012,10,09,16,30,15.00
2012,10,09,16,31,15.00
2012,10,09,16,32,15.10
2012,10,09,16,33,15.10
2012,10,09,16,34,15.10
2012,10,09,16,35,15.10
2012,10,09,16,36,15.10
2012,10,09,16,37,15.00
2012,10,09,16,38,15.00
2012,10,09,16,39,15.00
2012,10,09,16,40,14.90
2012,10,09,16,41,14.90
2012,10,09,16,42,14.90
2012,10,09,16,43,14.80
2012,10,09,16,44,14.80
2012,10,09,16,45,14.80
2012,10,09,16,46,14.80
2012,10,09,16,47,14.70
2012,10,09,16,48,14.70
2012,10,09,16,49,14.70
2012,10,09,16,50,14.70
2012,10,09,16,51,14.70
2012,10,09,16,52,14.70
2012,10,09,16,53,14.70
2012,10,09,16,54,14.70
2012,10,09,16,55,14.70
2012,10,09,16,56,14.60
2012,10,09,16,57,14.60
2012,10,09,16,58,14.60
2012,10,09,16,59,14.60
2012,10,09,17,00,14.60
2012,10,09,17,01,14.60
2012,10,09,17,02,14.60
2012,10,09,17,03,14.60
2012,10,09,17,04,14.60
2012,10,09,17,05,14.60
2012,10,09,17,06,14.60
2012,10,09,17,07,14.60
2012,10,09,17,08,14.60
2012,10,09,17,09,14.60
2012,10,09,17,10,14.60
2012,10,09,17,11,14.60
2012,10,09,17,12,14.50
2012,10,09,17,13,14.50
2012,10,09,17,14,14.50
2012,10,09,17,15,14.50
2012,10,09,17,16,14.50
2012,10,09,17,17,14.50
2012,10,09,17,18,14.50
2012,10,09,17,19,14.50
2012,10,09,17,20,14.50
2012,10,09,17,21,14.40
2012,10,09,17,22,14.40
2012,10,09,17,23,14.40
2012,10,09,17,24,14.40
2012,10,09,17,25,14.40
2012,10,09,17,26,14.30
2012,10,09,17,27,14.30
2012,10,09,17,28,14.30
2012,10,09,17,29,14.30
2012,10,09,17,30,14.30
2012,10,09,17,31,14.30
2012,10,09,17,32,14.20
2012,10,09,17,33,14.20
2012,10,09,17,34,14.20
2012,10,09,17,35,14.30
2012,10,09,17,36,14.30
2012,10,09,17,37,14.20
2012,10,09,17,38,14.20
2012,10,09,17,39,14.20
2012,10,09,17,40,14.10
2012,10,09,17,41,14.10
2012,10,09,17,42,14.00
2012,10,09,17,43,14.00
2012,10,09,17,44,13.90